User: anonymous   Login
Location: Fornova de Taro
(44.7000°N, 10.1000°E)
Time: 09:04:26
(UTC+00:00)
Language:

USA 229 DEB - Orbit

View from above orbital plane
View from above orbital plane
View from above satellite
View from above satellite

Ground track
Ground track

The orbit data is extracted from the following two-line orbital elements,

1 37391U 11014B   22229.10517273 0.00000030  00000-0  46079-4 0    09
2 37391  63.4351 252.3387 0236486 357.6601   2.3399 13.40840232    07
Epoch (UTC): 17 August 2022 02:31:26
Eccentricity: 0.0236486
inclination: 63.4351°
perigee height: 929 km
apogee height: 1283 km
right ascension of ascending node: 252.3387°
argument of perigee: 357.6601°
revolutions per day: 13.40840232
mean anomaly at epoch: 2.3399°
orbit number at epoch: 0

The dashed part of the orbit path shows where the satellite is in the earth's shadow,  

DLR